This is the latest recevied weather packets stored in our database for station/object KB9GXK. If no packets are shown the sender has not sent any weather packets the latest 1 day(s).
| Time | Temp. | Humidity | Pressure | Rain* | Wind** | Luminosity | Snow |
|---|---|---|---|---|---|---|---|
| 1777999483 | 13.89° C | 33% | 1008.9 hPa | 0 mm | 1.79 m/s, 254° | 522 W/m² | - |
| 1777999180 | 13.33° C | 36% | 1009 hPa | 0 mm | 0.45 m/s, 289° | 492 W/m² | - |
| 1777998879 | 13.33° C | 35% | 1009.1 hPa | 0 mm | 3.13 m/s, 208° | 505 W/m² | - |
| 1777998578 | 13.89° C | 36% | 1009.2 hPa | 0 mm | 1.79 m/s, 309° | 467 W/m² | - |
| 1777998273 | 12.78° C | 40% | 1008.9 hPa | 0 mm | 0.45 m/s, 231° | 446 W/m² | - |
| 1777997970 | 12.78° C | 40% | 1009.1 hPa | 0 mm | 1.34 m/s, 304° | 421 W/m² | - |
| 1777997667 | 12.78° C | 40% | 1009.2 hPa | 0 mm | 1.34 m/s, 339° | 507 W/m² | - |
| 1777997364 | 12.22° C | 41% | 1009.1 hPa | 0 mm | 0.89 m/s, 242° | 526 W/m² | - |
| 1777997062 | 11.67° C | 42% | 1009.1 hPa | 0 mm | 3.58 m/s, 219° | 320 W/m² | - |
| 1777996759 | 11.67° C | 41% | 1009.3 hPa | 0 mm | 2.68 m/s, 249° | 257 W/m² | - |
| 1777996455 | 11.67° C | 41% | 1009 hPa | 0 mm | 0.89 m/s, 317° | 252 W/m² | - |
| 1777996152 | 12.22° C | 41% | 1009.2 hPa | 0 mm | 1.79 m/s, 313° | 274 W/m² | - |
| 1777995848 | 11.67° C | 41% | 1008.9 hPa | 0 mm | 1.34 m/s, 211° | 372 W/m² | - |
| 1777995544 | 11.67° C | 41% | 1009.1 hPa | 0 mm | 1.34 m/s, 303° | 345 W/m² | - |
| 1777995242 | 11.67° C | 41% | 1009.2 hPa | 0 mm | 0.45 m/s, 307° | 337 W/m² | - |
| 1777994938 | 11.67° C | 40% | 1009.2 hPa | 0 mm | 1.79 m/s, 238° | 244 W/m² | - |
| 1777994635 | 11.67° C | 38% | 1009.5 hPa | 0 mm | 0.45 m/s, 317° | 221 W/m² | - |
| 1777994329 | 11.67° C | 41% | 1009.3 hPa | 0 mm | 0.45 m/s, 277° | 242 W/m² | - |
| 1777994027 | 11.11° C | 43% | 1009.4 hPa | 0 mm | 0.89 m/s, 208° | 196 W/m² | - |
| 1777993723 | 10.56° C | 42% | 1009.5 hPa | 0 mm | 2.68 m/s, 331° | 181 W/m² | - |
| 1777993420 | 11.11° C | 44% | 1009.3 hPa | 0 mm | 0.89 m/s, 232° | 190 W/m² | - |
| 1777993115 | 11.11° C | 42% | 1009.2 hPa | 0 mm | 1.34 m/s, 244° | 183 W/m² | - |
| 1777992813 | 11.11° C | 43% | 1009 hPa | 0 mm | 0.45 m/s, 286° | 169 W/m² | - |
| 1777992510 | 11.11° C | 43% | 1009.2 hPa | 0 mm | 1.34 m/s, 30° | 190 W/m² | - |
| 1777992209 | 11.11° C | 43% | 1009.3 hPa | 0 mm | 0.89 m/s, 257° | 178 W/m² | - |
* Rain latest hour (hover to see other rain measurements)
** Current wind speed in m/s (hover to see current wind gust speed)